Dallas Redbird, TX

5:11 AM CDT on August 18, 2017 (GMT -0500)
Redbird

Weather History for KRBD - November, 2013

Change the Weather History Date:

Wednesday, November 20, 2013

  Actual Average Record
Temperature  
Mean Temperature 55 °F -  
Max Temperature 64 °F 62 °F 80 °F (2012)
Min Temperature 46 °F 44 °F 33 °F (2001)
Degree Days  
Heating Degree Days 10    
Growing Degree Days 5 (Base 50)    
Moisture  
Dew Point 43 °F    
Average Humidity 58    
Maximum Humidity 75    
Minimum Humidity 47    
Precipitation  
Precipitation 0.00 in - - ()
Sea Level Pressure  
Sea Level Pressure 29.97 in    
Wind  
Wind Speed 10 mph (SE)    
Max Wind Speed 15 mph    
Max Gust Speed 22 mph    
Visibility 10 miles    
Events Rain    
Averages and records for this station are not official NWS values.
T = Trace of Precipitation, MM = Missing Value Source: NWS Daily Summary

Daily Weather History Graph

Daily Weather History Graph

Search for Another Location

Airport or City:

Trip Planner

Search our weather history database for the weather conditions in past years. The results will help you decide how hot, cold, wet, or windy it might be!

Date:

Astronomy

Nov. 20, 2013 Rise Set
Actual Time 7:02 AM CST 5:23 PM CST
Civil Twilight 6:35 AM CST 5:50 PM CST
Nautical Twilight 6:05 AM CST 6:20 PM CST
Astronomical Twilight 5:36 AM CST 6:49 PM CST
Moon 8:07 PM CST (11/20) 9:27 AM CST (11/20)
Length of Visible Light 11h 14m
Length of Day
10h 21m
Waning Gibbous, 91% of the Moon is Illuminated
Nov 20
Waning Gibbous
Nov 25
Last Quarter
Dec 2
New
Dec 9
First Quarter
Dec 17
Full

Hourly Weather History & Observations

Time (CST) Temp. Dew Point Humidity Pressure Visibility Wind Dir Wind Speed Gust Speed Precip Events Conditions
12:53 AM 52.0 °F 35.1 °F 53% 30.01 in 10.0 mi SE 9.2 mph - N/A   Clear
1:53 AM 51.1 °F 35.1 °F 54% 30.00 in 10.0 mi SE 8.1 mph - N/A   Clear
2:53 AM 48.9 °F 36.0 °F 61% 30.01 in 10.0 mi SE 6.9 mph - N/A   Clear
3:53 AM 48.9 °F 36.0 °F 61% 30.01 in 10.0 mi SSE 5.8 mph - N/A   Partly Cloudy
4:53 AM 48.0 °F 36.0 °F 63% 30.01 in 10.0 mi SSE 6.9 mph - N/A   Clear
5:53 AM 46.9 °F 36.0 °F 66% 30.01 in 10.0 mi SSE 5.8 mph - N/A   Clear
6:53 AM 48.0 °F 36.0 °F 63% 30.01 in 10.0 mi SSE 6.9 mph - N/A   Clear
7:50 AM 48.2 °F 37.4 °F 66% 30.02 in 10.0 mi SSE 8.1 mph - N/A   Mostly Cloudy
7:53 AM 50.0 °F 37.0 °F 61% 30.01 in 10.0 mi SSE 8.1 mph - N/A   Mostly Cloudy
8:53 AM 51.1 °F 36.0 °F 56% 30.02 in 10.0 mi SE 8.1 mph - N/A   Overcast
9:53 AM 54.0 °F 36.0 °F 51% 30.01 in 10.0 mi SE 10.4 mph - N/A   Overcast
10:26 AM 55.4 °F 35.6 °F 47% 30.01 in 10.0 mi SE 13.8 mph - N/A   Overcast
10:53 AM 57.0 °F 37.0 °F 47% 30.00 in 10.0 mi SSE 9.2 mph - N/A   Overcast
11:02 AM 57.2 °F 37.4 °F 48% 30.01 in 10.0 mi SSE 10.4 mph - N/A   Overcast
11:53 AM 61.0 °F 41.0 °F 48% 29.98 in 10.0 mi SSE 11.5 mph - N/A   Overcast
12:07 PM 60.8 °F 41.0 °F 48% 29.98 in 10.0 mi SSE 12.7 mph 20.7 mph N/A   Overcast
12:53 PM 62.1 °F 44.1 °F 52% 29.94 in 10.0 mi SSE 13.8 mph - N/A   Overcast
1:53 PM 64.0 °F 46.0 °F 52% 29.90 in 10.0 mi SE 13.8 mph - N/A   Overcast
2:53 PM 64.9 °F 48.0 °F 54% 29.89 in 10.0 mi SSE 15.0 mph 21.9 mph N/A   Overcast
3:53 PM 64.9 °F 50.0 °F 58% 29.90 in 10.0 mi SSE 11.5 mph 20.7 mph N/A   Overcast
4:53 PM 64.0 °F 48.9 °F 58% 29.91 in 10.0 mi SSE 15.0 mph - N/A   Overcast
5:53 PM 63.0 °F 48.9 °F 60% 29.92 in 10.0 mi SSE 13.8 mph - N/A   Overcast
6:40 PM 62.6 °F 48.2 °F 59% 29.94 in 10.0 mi SSE 12.7 mph - N/A   Overcast
6:53 PM 62.1 °F 48.0 °F 60% 29.93 in 10.0 mi SSE 12.7 mph 19.6 mph N/A   Overcast
7:25 PM 62.6 °F 48.2 °F 59% 29.94 in 10.0 mi SE 11.5 mph - N/A   Overcast
7:44 PM 62.6 °F 48.2 °F 59% 29.95 in 10.0 mi SE 10.4 mph - N/A   Overcast
7:53 PM 62.1 °F 48.0 °F 60% 29.94 in 10.0 mi SE 10.4 mph - N/A   Overcast
8:53 PM 62.1 °F 48.9 °F 62% 29.96 in 10.0 mi SE 9.2 mph - N/A   Overcast
9:53 PM 63.0 °F 50.0 °F 63% 29.95 in 10.0 mi SE 9.2 mph - N/A   Overcast
10:53 PM 62.1 °F 53.1 °F 72% 29.96 in 9.0 mi SSE 9.2 mph - 0.00 in Rain Light Rain
11:53 PM 62.1 °F 54.0 °F 75% 29.95 in 10.0 mi SE 9.2 mph - 0.00 in   Overcast